IU5GBO-13 Weather Reports


time (UTC)temp
C
wind
direction
speed
KPH
gust
KPH
rain 1hr
cm
rain 24hr
cm
rain mn
cm
humidity
%
barometer
mb
20260508033621 12 0.0 0.0 0.00 0.00 0.00 66 1012.2
20260508032621 12 0.0 0.0 0.00 0.00 0.00 67 1012.2
20260508031622 12 0.0 0.0 0.00 0.00 0.00 67 1012.2
20260508030622 12 0.0 0.0 0.00 0.00 0.00 66 1012.2
20260508025621 12 0.0 0.0 0.00 0.00 0.00 66 1012.1
20260508024621 12 0.0 0.0 0.00 0.00 0.00 66 1012.0
20260508023622 12 0.0 0.0 0.00 0.00 0.00 66 1012.1
20260508022622 12 0.0 0.0 0.00 0.00 0.00 66 1012.1
20260508021622 12 0.0 0.0 0.00 0.00 0.00 65 1012.1
20260508020622 12 0.0 0.0 0.00 0.00 0.00 64 1012.2
20260508015621 12 0.0 0.0 0.00 0.00 0.00 64 1012.4
20260508014621 12 0.0 0.0 0.00 0.00 0.00 64 1012.3
20260508013622 12 0.0 0.0 0.00 0.00 0.00 64 1012.4
20260508012621 12 0.0 0.0 0.00 0.00 0.00 62 1012.6
20260508011621 12 0.0 0.0 0.00 0.00 0.00 62 1012.6
20260508010622 12 0.0 0.0 0.00 0.00 0.00 63 1012.8
20260508005621 12 0.0 0.0 0.00 0.00 0.00 63 1012.8
20260508004621 12 0.0 0.0 0.00 0.00 0.00 64 1013.0
20260508003621 13 0.0 0.0 0.00 0.00 0.00 64 1013.2
20260508002621 12 0.0 0.0 0.00 0.00 0.00 64 1013.3
20260508001621 12 0.0 0.0 0.00 0.00 0.00 63 1013.4
20260508000621 13 0.0 0.0 0.00 0.00 0.00 64 1013.6
20260507235622 13 0.0 0.0 0.00 0.00 0.00 63 1013.6
20260507234621 13 0.0 0.0 0.00 0.00 0.00 61 1013.7
20260507233621 13 0.0 0.0 0.00 0.00 0.00 60 1013.9
20260507232621 13 0.0 0.0 0.00 0.00 0.00 57 1014.0
20260507231622 13 0.0 0.0 0.00 0.00 0.00 59 1014.0
20260507230621 13 0.0 0.0 0.00 0.00 0.00 58 1014.2
20260507225621 13 0.0 0.0 0.00 0.00 0.00 59 1014.2
20260507224621 13 0.0 0.0 0.00 0.00 0.00 59 1014.3
20260507223622 13 0.0 0.0 0.00 0.00 0.00 60 1014.3
20260507222621 13 0.0 0.0 0.00 0.00 0.00 60 1014.3
20260507221622 14 0.0 0.0 0.00 0.00 0.00 59 1014.3
20260507220621 14 0.0 0.0 0.00 0.00 0.00 60 1014.4
20260507215621 15 0.0 0.0 0.00 0.00 0.00 60 1014.3
20260507214621 15 0.0 0.0 0.00 0.00 0.00 60 1014.2
20260507213621 15 0.0 0.0 0.00 0.00 0.00 60 1014.3
20260507212621 15 0.0 0.0 0.00 0.00 0.00 58 1014.2
20260507211621 15 0.0 0.0 0.00 0.00 0.00 56 1014.2
20260507210621 15 0.0 0.0 0.00 0.00 0.00 58 1014.2
20260507205621 15 0.0 0.0 0.00 0.00 0.00 58 1014.2
20260507204621 16 0.0 0.0 0.00 0.00 0.00 55 1014.2
20260507203621 16 0.0 0.0 0.00 0.00 0.00 55 1014.2
20260507202624 15 0.0 0.0 0.00 0.00 0.00 56 1014.1
20260507201621 15 0.0 0.0 0.00 0.00 0.00 58 1014.1
20260507200621 16 0.0 0.0 0.00 0.00 0.00 56 1014.1
20260507195621 16 0.0 0.0 0.00 0.00 0.00 53 1014.0
20260507194621 17 0.0 0.0 0.00 0.00 0.00 48 1013.9
20260507193621 17 0.0 0.0 0.00 0.00 0.00 50 1013.9
20260507192621 17 0.0 0.0 0.00 0.00 0.00 48 1014.0
20260507191621 17 0.0 0.0 0.00 0.00 0.00 46 1013.9
20260507190621 17 0.0 0.0 0.00 0.00 0.00 44 1013.9
20260507185621 17 0.0 0.0 0.00 0.00 0.00 50 1013.8
20260507184621 17 0.0 0.0 0.00 0.00 0.00 53 1013.7
20260507183621 18 0.0 0.0 0.00 0.00 0.00 53 1013.9
20260507182621 18 0.0 0.0 0.00 0.00 0.00 52 1013.8
20260507181621 18 0.0 0.0 0.00 0.00 0.00 52 1013.9
20260507180621 18 0.0 0.0 0.00 0.00 0.00 51 1013.9
20260507175621 19 0.0 0.0 0.00 0.00 0.00 49 1013.9
20260507174621 19 0.0 0.0 0.00 0.00 0.00 48 1013.8
20260507173621 20 0.0 0.0 0.00 0.00 0.00 47 1013.8
20260507172621 20 0.0 0.0 0.00 0.00 0.00 46 1013.7
20260507171621 20 0.0 0.0 0.00 0.00 0.00 45 1013.7
20260507170621 20 0.0 0.0 0.00 0.00 0.00 44 1013.6
20260507165621 21 0.0 0.0 0.00 0.00 0.00 44 1013.6
20260507164621 21 0.0 0.0 0.00 0.00 0.00 44 1013.7
20260507163621 21 0.0 0.0 0.00 0.00 0.00 44 1013.7
20260507162621 21 0.0 0.0 0.00 0.00 0.00 42 1013.5
20260507161621 21 0.0 0.0 0.00 0.00 0.00 41 1013.5
20260507160621 21 0.0 0.0 0.00 0.00 0.00 40 1013.7
20260507155621 22 0.0 0.0 0.00 0.00 0.00 41 1013.7
20260507154621 22 0.0 0.0 0.00 0.00 0.00 40 1013.8
20260507153621 22 0.0 0.0 0.00 0.00 0.00 40 1013.7
20260507152621 22 0.0 0.0 0.00 0.00 0.00 40 1013.8
20260507151621 22 0.0 0.0 0.00 0.00 0.00 39 1013.7
20260507150620 22 0.0 0.0 0.00 0.00 0.00 40 1013.9
20260507145621 22 0.0 0.0 0.00 0.00 0.00 39 1013.8
20260507144621 23 0.0 0.0 0.00 0.00 0.00 40 1014.0
20260507143621 23 0.0 0.0 0.00 0.00 0.00 40 1014.0
20260507142620 23 0.0 0.0 0.00 0.00 0.00 39 1014.1
20260507141620 23 0.0 0.0 0.00 0.00 0.00 40 1014.2
20260507140621 23 0.0 0.0 0.00 0.00 0.00 40 1014.2
20260507135621 23 0.0 0.0 0.00 0.00 0.00 39 1014.3
20260507134621 23 0.0 0.0 0.00 0.00 0.00 39 1014.4
20260507133621 23 0.0 0.0 0.00 0.00 0.00 38 1014.6
20260507132621 23 0.0 0.0 0.00 0.00 0.00 39 1014.8
20260507131621 23 0.0 0.0 0.00 0.00 0.00 38 1014.8
20260507130621 23 0.0 0.0 0.00 0.00 0.00 38 1015.1
20260507125621 23 0.0 0.0 0.00 0.00 0.00 39 1015.2
20260507124620 23 0.0 0.0 0.00 0.00 0.00 38 1015.1
20260507123621 23 0.0 0.0 0.00 0.00 0.00 37 1015.0
20260507122620 23 0.0 0.0 0.00 0.00 0.00 36 1015.1
20260507121621 23 0.0 0.0 0.00 0.00 0.00 37 1015.1
20260507120620 23 0.0 0.0 0.00 0.00 0.00 36 1015.1
20260507115621 22 0.0 0.0 0.00 0.00 0.00 36 1015.0
20260507114621 22 0.0 0.0 0.00 0.00 0.00 37 1015.1
20260507113620 22 0.0 0.0 0.00 0.00 0.00 38 1015.1
20260507112620 22 0.0 0.0 0.00 0.00 0.00 38 1015.4
20260507111620 22 0.0 0.0 0.00 0.00 0.00 38 1015.4
20260507110621 22 0.0 0.0 0.00 0.00 0.00 37 1015.5
20260507105621 22 0.0 0.0 0.00 0.00 0.00 37 1015.5
20260507104621 22 0.0 0.0 0.00 0.00 0.00 37 1015.6
20260507103620 21 0.0 0.0 0.00 0.00 0.00 39 1015.6
20260507102621 21 0.0 0.0 0.00 0.00 0.00 41 1015.7
20260507101621 21 0.0 0.0 0.00 0.00 0.00 40 1015.8
20260507100620 21 0.0 0.0 0.00 0.00 0.00 39 1015.7
20260507095620 21 0.0 0.0 0.00 0.00 0.00 39 1015.7
20260507094620 22 0.0 0.0 0.00 0.00 0.00 38 1015.7
20260507093621 23 0.0 0.0 0.00 0.00 0.00 37 1015.6
20260507092620 23 0.0 0.0 0.00 0.00 0.00 38 1015.4
20260507091621 22 0.0 0.0 0.00 0.00 0.00 41 1015.4
20260507090621 21 0.0 0.0 0.00 0.00 0.00 46 1015.4
20260507085621 21 0.0 0.0 0.00 0.00 0.00 47 1015.5
20260507084621 22 0.0 0.0 0.00 0.00 0.00 45 1015.4
20260507083621 21 0.0 0.0 0.00 0.00 0.00 48 1015.5
20260507082621 21 0.0 0.0 0.00 0.00 0.00 49 1015.6
20260507081620 21 0.0 0.0 0.00 0.00 0.00 49 1015.6
20260507080621 21 0.0 0.0 0.00 0.00 0.00 50 1015.6
20260507075621 20 0.0 0.0 0.00 0.00 0.00 51 1015.6
20260507074621 21 0.0 0.0 0.00 0.00 0.00 48 1015.7
20260507073621 21 0.0 0.0 0.00 0.00 0.00 51 1015.8
20260507072621 20 0.0 0.0 0.00 0.00 0.00 53 1015.9
20260507071623 20 0.0 0.0 0.00 0.00 0.00 54 1015.8
20260507070620 19 0.0 0.0 0.00 0.00 0.00 58 1015.7
20260507065620 18 0.0 0.0 0.00 0.00 0.00 60 1015.7
20260507064621 17 0.0 0.0 0.00 0.00 0.00 65 1015.7
20260507063621 16 0.0 0.0 0.00 0.00 0.00 67 1015.7
20260507062621 16 0.0 0.0 0.00 0.00 0.00 69 1015.6
20260507061620 16 0.0 0.0 0.00 0.00 0.00 71 1015.6
20260507060621 15 0.0 0.0 0.00 0.00 0.00 76 1015.4
20260507055620 13 0.0 0.0 0.00 0.00 0.00 77 1015.5
20260507054621 13 0.0 0.0 0.00 0.00 0.00 80 1015.2
20260507053620 13 0.0 0.0 0.00 0.00 0.00 82 1015.2
20260507052621 12 0.0 0.0 0.00 0.00 0.00 81 1015.2
20260507051620 12 0.0 0.0 0.00 0.00 0.00 82 1015.1
20260507050620 12 0.0 0.0 0.00 0.00 0.00 82 1015.1
20260507045620 12 0.0 0.0 0.00 0.00 0.00 83 1014.9
20260507044620 11 0.0 0.0 0.00 0.00 0.00 83 1014.9
20260507043621 11 0.0 0.0 0.00 0.00 0.00 83 1014.8
20260507042620 11 0.0 0.0 0.00 0.00 0.00 83 1014.7
20260507041620 11 0.0 0.0 0.00 0.00 0.00 83 1014.6
20260507040621 11 0.0 0.0 0.00 0.00 0.00 82 1014.6
20260507035621 12 0.0 0.0 0.00 0.00 0.00 81 1014.6
20260507034620 12 0.0 0.0 0.00 0.00 0.00 82 1014.5